If you wish to contribute or participate in the discussions about articles you are invited to join SKYbrary as a registered user

 Actions

Arctic Village Airport

From SKYbrary Wiki

PARC
Airport
ICAO: PARC – IATA: ARC
Summary
Name Arctic Village Airport
Region North America
Territory Alaska US.gif
Location , Alaska
Serving Arctic Village
Elevation 637.642 m
2,092 ft
2,092 ft637.642 m
Type medium airport
Coordinates 68° 6' 52.92" N, 145° 34' 44.40" W
Runways
Designator Length Width Surface ROPS
2/20 1372 m4,501.312 ft
23 m75.459 ft
GVL /


METAR
Observation PARC 231156Z AUTO 03010KT 10SM SCT085 BKN110 07/03 A2996 RMK AO2 SLP171 70002 T00670033 10144 20067 55004
Station Arctic Village, Arctic Village Airport
Date/Time 23 May 2019 11:56:00
Wind direction 30°
Wind speed 10 kts
Lowest cloud amount scattered clouds
Temperature 6.7°C
Dew point 3.3°C
Humidity 78%
QNH hPa
Weather condition n/a